Location: Usti nad Labem
(50.6667°N, 14.0333°E)
Time: 01:53:52
(UTC+01:00)

ISS - Visible Passes

Search period start: 21 November 2017 00:00
Search period end: 01 December 2017 00:00
Orbit: 402 x 407 km, 51.6° (Epoch: 21 November)

Date Brightness Start Highest point End Pass type
(mag) Time Alt. Az. Time Alt. Az. Time Alt. Az.
28 Nov -1.6 18:16:32 10° SSW 18:17:53 17° S 18:17:53 17° S visible
29 Nov -1.6 17:25:17 10° SSE 17:26:55 13° SE 17:27:47 12° ESE visible
29 Nov -1.0 18:59:38 10° SW 19:00:27 16° SW 19:00:27 16° SW visible
30 Nov -2.8 18:07:30 10° SW 18:10:17 35° SSE 18:10:17 35° SSE visible
